Regional Weather Roundup
Issued by NWS

Home | Current Version | Previous Version | Graphics & Text | Print | Product List | Glossary On
Versions: 1 2 3 4 5 6 7 8 9 10 11 12 13 14 15 16 17 18 19 20 21 22 23 24 25 26 27 28 29 30 31 32 33 34 35 36 37 38 39 40 41 42 43 44 45 46 47 48 49 50
000
ASUS43 KLOT 061610
RWRIL

ILLINOIS REGIONAL WEATHER ROUNDUP
NATIONAL WEATHER SERVICE CHICAGO/ROMEOVILLE IL
1000 AM CST FRI MAR 06 2015

NOTE: "FAIR" INDICATES FEW OR NO CLOUDS BELOW 12,000 FEET WITH NO
SIGNIFICANT WEATHER AND/OR OBSTRUCTIONS TO VISIBILITY.

* THESE STATIONS ARE NOT UNDER NWS QUALITY CONTROL. THEY ALSO MAY NOT
  REPORT WEATHER SUCH AS PRECIPITATION OR FOG.

ILZ001-002-007-009-015-016-024-061700-
NORTHWEST ILLINOIS

CITY           SKY/WX    TMP DP  RH WIND       PRES   REMARKS
MOLINE         MOSUNNY   23   9  55 S9G18     30.28F WCI  13
STERLING*      SUNNY     19   9  63 S7        30.31F WCI  10
SAVANNA*       SUNNY     18   8  64 S14       30.29F WCI   4
$$

ILZ003-004-008-010-011-017-018-061700-
NORTH CENTRAL ILLINOIS

CITY           SKY/WX    TMP DP  RH WIND       PRES   REMARKS
ROCKFORD       MOSUNNY   15   5  64 S18G26    30.33F WCI  -2
FREEPORT*      PTSUNNY   14   6  70 S15G23    30.29F WCI  -1
ROCHELLE*      SUNNY     13   7  75 S20       30.33F WCI  -4
DE KALB*       MOSUNNY   10   4  74 S21       30.34F WCI  -9
PERU*          MOSUNNY   16   8  68 S18       30.37F WCI   0
$$

ILZ005-006-012>014-019>023-061700-
NORTHEAST ILLINOIS

CITY           SKY/WX    TMP DP  RH WIND       PRES   REMARKS
CHICAGO-OHARE  MOSUNNY   16   4  59 S15       30.37F WCI   1
CHICAGO-MIDWAY MOSUNNY   16   3  56 S16G29    30.40F WCI   1
AURORA         SUNNY     13   3  64 S16       30.37F WCI  -3
LANSING*       SUNNY     13   3  65 SW15G22   30.44F WCI  -3
JOLIET*        SUNNY     15   4  62 S15G21    30.42F WCI   0
WAUKEGAN       MOSUNNY   17   5  59 SW22      30.33F WCI   0
DUPAGE AIRPORT SUNNY     13   2  61 S21       30.37F WCI  -5
KANKAKEE*      SUNNY     14   6  71 S16       30.45F WCI  -2
WHEELING       SUNNY     17   3  54 S18       30.38F WCI   1
MORRIS*        MOSUNNY   14   7  71 S17       30.41F WCI  -2
ROMEOVILLE*    SUNNY     16   5  64 S21       30.39F WCI  -2
NORTHERLY ISL    N/A     16   1  51 S18         N/A  WCI   0
$$

LMZ740>746-061700-
SOUTHERN LAKE MICHIGAN

STATION/POSITION SKY/WX   TEMP    WIND        PRES    VSBY  WAVE
                          AIR SEA DIR/SP/G                  HT/PER
                          (F)     (DEG/KT/KT) (MB)    (MI)  (FT/S)
WAUKEGAN HARBOR            17                   N/A
HARRISON CRIB              15     200/ 25/ 31   N/A
BURNHAM HARBOR             16     190/ 13/ 19   N/A
CALUMET HARBOR             15     190/ 13/ 18 1028.4F
MICHIGAN CITY              11     160/ 13/ 16   N/A
$$

ILZ025>027-034>036-040-047-049-050-058-095>099-061700-
WEST-CENTRAL ILLINOIS

CITY           SKY/WX    TMP DP  RH WIND       PRES   REMARKS
QUINCY         PTSUNNY   27  12  53 S17G25    30.31F WCI  14
GALESBURG*     SUNNY     20  11  70 S15G21    30.30F WCI   6
MACOMB*        SUNNY     21  13  71 S20       30.33F WCI   6
JACKSONVILLE*  SUNNY     23  11  61 S12G21    30.39F WCI  12
PITTSFIELD*    MOSUNNY   27  14  57 S15       30.37F WCI  15
$$

ILZ028>032-037-038-041>044-048-051>054-059>061-061700-
CENTRAL ILLINOIS

CITY           SKY/WX    TMP DP  RH WIND       PRES   REMARKS
PONTIAC        MOSUNNY   15   8  72 S17G24    30.42F WCI  -1
BLOOMINGTON    SUNNY     16   9  74 S17       30.42F WCI   0
DECATUR        SUNNY     15   6  67 S16       30.47F WCI  -1
PEORIA         MOSUNNY   20   9  62 S22G28    30.37F WCI   3
LACON*         MOSUNNY   20   7  57 S13G20    30.36F WCI   7
LINCOLN*       MOSUNNY   19  10  67 S18G24    30.46F WCI   3
SPRINGFIELD    MOSUNNY   20   9  62 S18       30.42F WCI   5
TAYLORVILLE    SUNNY     19   9  63 S18       30.47F WCI   4
$$

ILZ033-039-045-046-055>057-062-063-061700-
EAST-CENTRAL ILLINOIS

CITY           SKY/WX    TMP DP  RH WIND       PRES   REMARKS
CHAMPAIGN      SUNNY     12   5  73 S17       30.47F WCI  -5
DANVILLE*      SUNNY     14   4  65 SW16      30.46F WCI  -2
RANTOUL*       SUNNY     15   7  70 S14       30.46F WCI   0
MATTOON        SUNNY     14   5  67 S12       30.49F WCI   0
PARIS*         SUNNY     17   6  64 S12       30.52F WCI   4
$$

ILZ079-100>102-061700-
SOUTHWEST ILLINOIS

CITY           SKY/WX    TMP DP  RH WIND       PRES   REMARKS
ALTON          SUNNY     23  10  58 S14       30.48F WCI  11
BELLEVILLE     SUNNY     24  13  63 S9        30.50F WCI  15
CAHOKIA*       SUNNY     26  13  57 S14       30.49F WCI  14
SPARTA*        SUNNY     21   8  58 S16       30.55F WCI   7
$$

ILZ064>066-069>071-074>076-080>082-084>086-088>090-092>094-061700-
SOUTH-CENTRAL ILLINOIS

CITY           SKY/WX    TMP DP  RH WIND       PRES   REMARKS
CARBONDALE     SUNNY     20   7  57 S10       30.58F WCI   9
CAIRO*         SUNNY     22  16  79 S6        30.63F WCI  14
EFFINGHAM*     SUNNY     19   3  51 S12       30.55F WCI   6
MARION         SUNNY     21   9  58 S12       30.59F WCI   9
MT. VERNON     SUNNY     19   9  63 S10       30.57S WCI   8
CENTRALIA*     SUNNY     22   8  54 S12       30.54F WCI  10
SALEM*         SUNNY     21   7  55 S10       30.54F WCI  10
METROPOLIS*    SUNNY     20  10  63 S3        30.61F
$$

ILZ067-068-072-073-078-083-087-091-061700-
SOUTHEAST ILLINOIS

CITY           SKY/WX    TMP DP  RH WIND       PRES   REMARKS
LAWRENCEVILLE  SUNNY     16   8  71 S5        30.59F WCI   9
FLORA*         SUNNY     17   8  66 S9        30.57F WCI   6
FAIRFIELD*     SUNNY     16   7  67 S8        30.57F WCI   5
HARRISBURG*    SUNNY     15  13  92 CALM      30.61F
ROBINSON*      SUNNY     18   7  64 S9        30.57F WCI   6
CARMI*         SUNNY     17  15  90 S9        30.59F WCI   6
$$

ABBREVIATIONS USED IN REMARKS
   TC - TEMPERATURE IN CELSIUS
  WCI - WIND CHILL INDEX
   HX - HEAT INDEX
  VSB - VISIBILITY
$$



USA.gov is the U.S. government's official web portal to all federal, state and local government web resources and services.